Погода в Билярске

Россия / Республика Татарстан     54°59′04″N   50°22′59″E
темп.,
°C
ветер,
м/с
пор.,
м/с
влажн.,
%
обл.,
%
осадки,
мм/ч
давл.,
гПа
погр.,
м
28 января, чт
чт2800:00−6ю81692100 0.0 1022458
03:00−6ю71491100 0.0 1021434
06:00−8ю71390100 0.0 1020350
09:00−8ю71291100 0.0 1020336
12:00−7ю71393100 0.0 1020360
15:00−6ююв61192100 0.0 1019377
18:00−8ююв61193100 0.0 1019330
21:00−8ююв61392100 0.0 1019308
29 января, пт
пт2900:00−8ююв61292100 0.0 1018293
03:00−9ююв4994100 0.0 1017264
06:00−7ююв5994100 0.0 1015313
09:00−7ююв51194100 0.1 1014392
12:00−5ююв5994100 0.1 1013442
15:00−5ююв4894100 0.1 1012431
18:00−4ююв4995100 0.3 1011425
21:00−4ююв5996100 0.6 1010375
30 января, сб
сб3000:00−4ююв4996100 0.4 1009289
03:00−4ю4896100 0.9 1008270
06:00−4ю4897100 0.1 1007272
09:00−4ю61097100 0.1 1007354
12:00−4ю6129591 0.0 1007469
15:00−2ююв7129396 0.1 1006538
18:00−1ю71496100 1.0 1005746
21:00−2юз61486100 1.3 1007486
31 января, вс
вс3100:00−5юз4991100 0.0 1009191
03:00−7ю3693100 0.0 1011101
06:00−5ююв51094100 0.0 1011232
09:00+1ю71398100 0.3 1011553
12:000ю8158698 0.0 1011594
15:00−2ю9178199 0.0 1010630
18:00−2ююв112179100 0.0 1008733
21:00−1ююв132373100 0.0 1004916
1 февраля, пн
пн100:00−2ю122093100 1.0 10031027
03:00−1юз101782100 2.1 10041122
06:00−4юз8168989 0.0 1006822
09:00−5юз8158994 0.1 1011762
12:00−6зюз71388100 0.0 1014705
15:00−6юз41190100 0.0 1017469
18:00−8ююз5119359 0.0 1019240
21:00−8ююз499680 0.0 1020182